Home   Weather   Sperryville   Past weeks
Flag for USA

Past Weather in Sperryville, Virginia, USA — Yesterday and Last 2 Weeks

Now
66 °F

Clear.


Feels Like: 66 °F
Forecast: 87 / 67 °F
Wind: 3 mph from South

Location: warren County Airport

Current Time: May 26, 2019 at 6:09:28 am

Latest Report: May 26, 2019 at 5:35 am


Visibility: 5 mi

Pressure: 30.03 "Hg

Humidity: 100%

Dew Point: 66 °F

Location of SperryvilleLocation

Past Weather in Sperryville — Graph

°F

Sperryville Temperature Yesterday

Maximum temperature yesterday: 82 °F (at 12:55 pm)
Minimum temperature yesterday: 57 °F (at 3:35 am)
Average temperature yesterday: 70 °F

High & Low Weather Summary for the Past Weeks

 TemperatureHumidityPressure
High88 °F (May 19, 12:35 pm)100% (May 11, 5:15 am)30.28 "Hg (May 11, 5:15 am)
Low43 °F (May 15, 12:55 am)30% (May 20, 6:35 pm)29.73 "Hg (May 12, 8:55 am)
Average64 °F74%29.96 "Hg
* Reported May 11 5:15 am — May 26 5:15 am, Sperryville. Weather by CustomWeather, © 2019

Note: Actual official high and low records may vary slightly from our data, if they occured in-between our weather recording intervals... More about our weather records

Advertising

Sperryville Weather History for the Previous 24 Hours

Scroll right to see more
 ConditionsComfort  
Time TempWeatherWind HumidityBarometerVisibility
5:15 am
Sun, May 26
66 °FPassing clouds.3 mph100%30.03 "Hg5 mi
4:55 am68 °FClear.6 mph100%30.03 "Hg7 mi
4:35 am68 °FClear.6 mph100%30.03 "Hg7 mi
4:15 am68 °FClear.5 mph100%30.02 "Hg10 mi
3:15 am68 °FClear.6 mph100%30.02 "Hg7 mi
2:55 am68 °FClear.No wind100%30.03 "Hg7 mi
2:35 am68 °FClear.No wind100%30.03 "Hg10 mi
2:15 am68 °FClear.3 mph100%30.02 "Hg10 mi
1:55 am68 °FPassing clouds.5 mph100%30.02 "Hg7 mi
1:35 am70 °FPassing clouds.3 mph100%30.02 "Hg10 mi
1:15 am70 °FOvercast.6 mph100%30.02 "Hg10 mi
12:55 am70 °FPartly cloudy.6 mph100%30.02 "Hg10 mi
12:35 am70 °FPassing clouds.7 mph100%30.03 "Hg7 mi
12:15 am70 °FPassing clouds.6 mph100%30.03 "Hg10 mi
11:55 pm
Sat, May 25
70 °FPassing clouds.8 mph100%30.03 "Hg10 mi
11:35 pm70 °FPartly cloudy.8 mph100%30.04 "Hg7 mi
11:15 pm68 °FOvercast.3 mph100%30.07 "Hg5 mi
10:55 pm68 °FOvercast.No wind100%30.05 "Hg7 mi
10:35 pm68 °FMostly cloudy.No wind100%30.06 "Hg10 mi
10:15 pm68 °FPassing clouds.No wind100%30.05 "Hg10 mi
9:35 pm68 °FPassing clouds.3 mph100%30.05 "Hg10 mi
9:15 pm68 °FClear.No wind100%30.05 "Hg10 mi
8:55 pm68 °FClear.3 mph100%30.03 "Hg10 mi
8:35 pm68 °FClear.3 mph100%30.03 "Hg10 mi
8:15 pm70 °FScattered clouds.No wind94%30.04 "Hg10 mi
7:55 pm70 °FBroken clouds.6 mph100%30.05 "Hg10 mi
7:35 pm70 °FScattered clouds.5 mph100%30.05 "Hg10 mi
7:15 pm70 °FBroken clouds.3 mph100%30.05 "Hg10 mi
6:55 pm70 °FMostly cloudy.5 mph100%30.05 "Hg10 mi
6:35 pm68 °FCloudy.5 mph100%30.05 "Hg2 mi
6:15 pm70 °FLow clouds.No wind94%30.08 "Hg0 mi
5:55 pm75 °FPartly sunny.18 mph83%30.05 "Hg10 mi
5:35 pm77 °FPartly sunny.5 mph79%30.01 "Hg10 mi
5:15 pm77 °FCloudy.3 mph79%30.02 "Hg10 mi
4:55 pm79 °FBroken clouds.13 mph74%30.05 "Hg10 mi
4:35 pm79 °FBroken clouds.7 mph70%30.04 "Hg10 mi
4:15 pm77 °FMostly cloudy.3 mph74%30.03 "Hg5 mi
3:55 pm81 °FBroken clouds.3 mph62%30.04 "HgN/A
3:35 pm82 °FScattered clouds.7 mph62%30.05 "HgN/A
3:15 pm81 °FScattered clouds.7 mph62%30.05 "HgN/A
2:55 pm82 °FSunny.10 mph55%30.05 "HgN/A
2:35 pm82 °FSunny.7 mph62%30.06 "HgN/A
2:15 pm82 °FSunny.7 mph58%30.07 "HgN/A
1:55 pm82 °FSunny.7 mph62%30.07 "HgN/A
1:35 pm82 °FSunny.5 mph62%30.07 "HgN/A
1:15 pm82 °FSunny.No wind62%30.09 "HgN/A
12:55 pm82 °FSunny.6 mph58%30.11 "HgN/A
12:35 pm81 °FSunny.No wind58%30.12 "Hg10 mi
12:15 pm81 °FSunny.3 mph58%30.13 "Hg10 mi
11:55 am79 °FSunny.No wind58%30.14 "Hg10 mi
11:35 am79 °FSunny.No wind54%30.14 "Hg10 mi
11:15 am77 °FSunny.No wind57%30.15 "Hg10 mi
10:55 am77 °FSunny.No wind57%30.15 "Hg10 mi
10:35 am77 °FSunny.No wind57%30.16 "Hg10 mi
10:15 am75 °FSunny.3 mph61%30.16 "Hg10 mi
9:35 am73 °FSunny.No wind61%30.17 "Hg10 mi
9:15 am72 °FSunny.No wind69%30.17 "Hg10 mi
8:55 am70 °FSunny.No wind69%30.16 "Hg10 mi
8:35 am68 °FSunny.No wind78%30.16 "Hg10 mi
8:15 am66 °FScattered clouds.No wind83%30.16 "Hg10 mi
7:55 am64 °FScattered clouds.No wind83%30.16 "Hg10 mi
7:35 am63 °FScattered clouds.No wind94%30.16 "Hg10 mi
7:15 am63 °FPartly sunny.No wind94%30.17 "Hg10 mi
6:55 am61 °FPartly sunny.No wind94%30.16 "Hg10 mi
6:35 am61 °FOvercast.No wind100%30.16 "Hg10 mi
6:15 am59 °FOvercast.No wind100%30.15 "Hg10 mi
Weather by CustomWeather, © 2019

See weather overview